www.pogodaiklimat.ru

Погода и климат >> Архив погоды >> Таиланд >> Бангкок Пилот


ПОГОДА в Бангкок Пилот

  • Прогноз погоды в Бангкок Пилот
  • Монитор погоды в Бангкок Пилот

АРХИВ ПОГОДЫ в Бангкок Пилот

Время (UTC), дата Ветер
(напр.,м/с)
 
Видим.   Явления Облачность Т
(С)
Тd
(С)
f
(%)
Тe
(С)
Тes
(С)
Комфортность P
(гПа)
Po
(гПа)
Тmin
(С)
Tmax
(С)
R
(мм)
R24
(мм)
S
(см)
06 15.04 Ю 11 10 км 8/4 600 м
[Cu med, cong Cs]
+31.5 +27.6 80 +51 +51 опасность
перегрева
1009.5 1007.8
09 15.04 Ю 18 10 км 8/3 300 м
[Cb cap Cs]
+31.0 +27.6 82 +50 +50 опасность
перегрева
1007.3 1005.7
12 15.04 Ю 18 10 км 8/3 600 м
[Cu med, cong Ac lent Cs]
+30.6 +28.3 88 +52 +52 опасность
перегрева
1008.4 1006.7 +31.8
00 16.04 Ю 8 10 км 8/4 600 м
[Cu Sc Cs]
+30.0 +27.7 88 +49 +49 опасность
перегрева
1009.4 1007.7 +29.5
03 16.04 Ю 11 10 км 8/3 600 м
[Cu med, cong Cs]
+31.0 +27.6 82 +50 +50 опасность
перегрева
1011.6 1009.9
06 16.04 Ю 9 10 км 8/3 600 м
[Cu med, cong Cs]
+31.8 +27.5 78 +51 +52 опасность
перегрева
1009.9 1008.2
09 16.04 Ю 11 10 км 8/3 600 м
[Cu med, cong Cs]
+31.2 +27.8 82 +51 +51 опасность
перегрева
1006.4 1004.8
12 16.04 Ю 18 10 км 8/3 600 м
[Cu med, cong Ac lent Cs]
+30.7 +27.5 83 +49 +49 опасность
перегрева
1007.8 1006.1 +32.0
00 17.04 Ю 12 10 км 8/3 600 м
[Cu med, cong Cs]
+30.3 +28.1 88 +50 +50 опасность
перегрева
1009.4 1007.7 +29.8
03 17.04 Ю 12 10 км 4/3 600 м
[Cu med, cong Cs]
+31.0 +28.5 87 +53 +53 опасность
перегрева
1011.6 1009.9
06 17.04 Ю 13 10 км 8/3 600 м
[Cu med, cong Cs]
+31.7 +28.3 82 +53 +53 опасность
перегрева
1010.0 1008.4
09 17.04 Ю 13 10 км 6/3 300 м
[Cb cap Cs]
+31.3 +28.0 83 +52 +52 опасность
перегрева
1006.7 1005.0
12 17.04 Ю 18 10 км 8/3 600 м
[Cu med, cong Ac lent Cs]
+31.0 +28.5 87 +53 +53 опасность
перегрева
1006.8 1005.1 +31.8
00 18.04 Ю 13 10 км осадки на расстоянии 8/4 600 м
[Cu Sc Cs]
+30.3 +28.2 89 +51 +51 опасность
перегрева
1008.9 1007.2 +29.8
03 18.04 Ю 10 10 км 8/6 600 м
[Cu Sc Cs]
+31.4 +28.4 84 +53 +53 опасность
перегрева
1010.3 1008.6
06 18.04 Ю 16 10 км 8/3 300 м
[Cb cap Cs]
+31.7 +28.3 82 +53 +53 опасность
перегрева
1008.7 1007.0
09 18.04 Ю 19 10 км 8/3 600 м
[Cu med, cong Cs]
+30.9 +29.0 90 +54 +54 опасность
перегрева
1005.5 1003.8
12 18.04 Ю 20 10 км 8/3 600 м
[Cu med, cong Cs]
+30.7 +28.8 90 +53 +53 опасность
перегрева
1006.4 1004.7 +31.8
00 19.04 Ю 13 10 км 8/3 600 м
[Sc Cs]
+30.4 +27.8 86 +50 +50 опасность
перегрева
1007.4 1005.8 +29.8
03 19.04 Ю 14 10 км 8/3 600 м
[Cu hum Cs]
+31.3 +28.2 84 +52 +52 опасность
перегрева
1009.1 1007.4
06 19.04 Ю 14 10 км 4/3 600 м
[Cu med, cong Cs]
+31.9 +28.4 82 +54 +54 опасность
перегрева
1007.5 1005.8
09 19.04 Ю 14 10 км 8/3 600 м
[Cu med, cong Cs]
+31.4 +28.4 84 +53 +53 опасность
перегрева
1004.5 1002.9
12 19.04 Ю 19 10 км 8/3 600 м
[Cu med, cong Cs]
+31.0 +28.5 87 +53 +53 опасность
перегрева
1005.2 1003.5 +32.2
00 20.04 ЮЗ 8 8000 м дымка 3/3 600 м
[Sc Cs]
+30.7 +26.7 79 +47 +47 опасность
перегрева
1006.1 1004.5 +30.2
03 20.04 штиль 0 4000 м дымка 4/1 600 м
[Cu med, cong Cs]
+33.2 +27.7 73 +53 +71 опасность
перегрева
1007.8 1006.1
06 20.04 Ю 7 3000 м дымка 4/3 600 м
[Cu med, cong Cs]
+32.2 +27.2 75 +51 +55 опасность
перегрева
1006.1 1004.4
09 20.04 Ю 10 8000 м дымка 4/1 600 м
[Cb calv Cs]
+32.4 +26.9 73 +50 +51 опасность
перегрева
1003.1 1001.4
12 20.04 Ю 16 8000 м дымка 8/1 600 м
[Cu med, cong Ac lent Cs]
+31.6 +28.5 84 +53 +53 опасность
перегрева
1003.1 1001.5 +33.6
00 21.04 Ю 10 7000 м дымка 8/4 600 м
[Cu Sc Cs]
+30.7 +29.3 92 +54 +54 опасность
перегрева
1005.9 1004.3 +30.2
03 21.04 Ю 12 4000 м дымка 3/0
[Cs]
+31.6 +28.0 81 +52 +52 опасность
перегрева
1007.2 1005.6
06 21.04 Ю 12 5000 м дымка 6/3 600 м
[Cu med, cong Cs]
+32.3 +28.6 81 +55 +55 опасность
перегрева
1005.8 1004.2
09 21.04 Ю 13 7000 м дымка 6/3 600 м
[Cu med, cong Cs]
+31.7 +28.3 82 +53 +53 опасность
перегрева
1003.3 1001.6
12 21.04 Ю 14 5000 м дымка 8/3 600 м
[Cu med, cong Ac lent Cs]
+31.5 +29.2 88 +55 +55 опасность
перегрева
1003.4 1001.7 +32.7
00 22.04 Ю 15 8000 м дымка 8/4 600 м
[Cu Sc Cs]
+30.7 +28.1 86 +51 +51 опасность
перегрева
1006.1 1004.5 +30.3
03 22.04 Ю 13 5000 м дымка 6/3 600 м
[Cu med, cong Cs]
+31.7 +28.7 84 +54 +54 опасность
перегрева
1007.8 1006.1

 

Местоположение метеостанции Бангкок Пилот (Таиланд): широта 13.38 долгота 100.60 высота над уровнем моря 15 м.

В архиве по умолчанию представлена погода в Бангкок Пилот за последнюю неделю. Архивные данные за месяц целиком и за предыдущие месяцы, начиная с января 2011 года, Вы можете получить, выбрав интересующий диапазон дат из раскрывающегося списка и нажав кнопку "Ввод!".


*Определитесь, кто Вы:
робот инопланетянин человек

Внимание! Время в таблицах - всемирное. Для получения местного времени необходимо прибавить поправку, которая равна 7 ч.

Смотрите также архив погоды в соседних городах и на ближайших метеорологических станциях:

Погода в Самутрудкан Агромете (Таиланд) (22 км)
Погода на Ко Сичан (Таиланд) (32 км)
Погода в Бангна Агромете (Таиланд) (32 км)
Погода в Бангкоке 2 (Таиланд) (36 км)
Погода в Аэропорту Суварнабхуми (Таиланд) (38 км)
Погода в Бангкоке (Таиланд) (39 км)
Погода в Чонбури (Таиланд) (41 км)
Погода в Ратбури (Таиланд) (41 км)
Погода в Паттайе (Таиланд) (58 км)
Погода в Дон Муанг (Таиланд) (60 км)

Пояснения к столбцам:

Ветер - указаны скорость ветра в м/с - средняя за 10 мин, порывы в срок и между сроками (в фигурных скобках) и направление, откуда дует ветер: С - северный, СВ - северо-восточный, В - восточный, ЮВ - юго-восточный, Ю - южный, ЮЗ - юго-западный, З - западный, СЗ - северо-западный.
Видимость - горизонтальная дальность видимости в метрах или километрах. При видимости от 1 до 10 км при отсутствии осадков обычно наблюдается дымка, при ухудшении видимости до 1 км и менее - туман. В сухую погоду видимость может ухудшаться дымом, пылью или мглою.
Явления - указаны атмосферные явления, наблюдавшиеся в срок или в последний час перед сроком; фигурными скобками обозначены явления, наблюдавшиеся между сроками (за 1-3 часа до срока); квадратными скобками обозначены град или гололедные отложения с указанием их диаметра в мм.
Облачность - указаны через наклонную черту общая и нижняя облачность в баллах и высота нижней границы облаков в метрах; квадратными скобками обозначены формы облаков: Ci - перистые, Cs - перисто-слоистые, Cc - перисто-кучевые, Ac - высококучевые, As - высокослоистые, Sc - слоисто-кучевые, Ns - слоисто-дождевые, Cu - кучевые, Cb - кучево-дождевые. Подробнее классификацию облаков см. в Атласе облаков (PDF).
T - Температура воздуха - температура, измеренная на высоте 2 м над землей.
Td - Температура точки росы - температура, при понижении до которой содержащийся в воздухе водяной пар достигнет насыщения.
f - Относительная влажность воздуха - влажноcть воздуха, измеренная на высоте 2 м над землей.
Te - Эффективная температура - температура, которую ощущает одетый по сезону человек в тени. Характеристика душности погоды. При расчете учитывается влияние влажности воздуха и скорости ветра на теплоощущения человека.
Tes - Эффективная температура на солнце - температура, которую ощущает человек, с поправкой на солнечный нагрев. Характеристика знойности погоды. Зависит от высоты солнца над горизонтом, облачности и скорости ветра. Ночью, в пасмурную погоду, а также при ветре 12 м/с и более поправка равна нулю.
P - Атмосферное давление - приведенное к уровню моря атмосферное давление.
Po - Атмосферное давление - измеренное на уровне метеостанции атмосферное давление.
Tmin - Минимальная температура - минимум температуры воздуха на высоте 2 м над землей.
Tmax - Максимальная температура - максимум температуры воздуха на высоте 2 м над землей.
R - Количество осадков - Количество выпавших осадков за период времени, мм. При наведении курсора мыши на число - период времени, за который выпало указанное количество осадков.
R24 - Количество осадков - Количество выпавших осадков за 24 часа, мм.
S - Снежный покров - Высота снежного покрова, см. При наведении курсора мыши на число - состояние снежного покрова и степень покрытия местности в баллах.